FW0298 Weather Reports


time (UTC)temp
C
wind
direction
speed
KPH
gust
KPH
rain 1hr
cm
rain 24hr
cm
rain mn
cm
humidity
%
barometer
mb
20260906080625 20 46 4.8 11.3 0.00 0.41 0.00 87 1015.8
20260906080131 20 53 6.4 11.3 0.00 0.41 0.00 86 1015.7
20260906075611 20 52 4.8 12.9 0.00 0.41 0.00 86 1015.8
20260906075110 20 54 6.4 14.5 0.00 0.41 0.00 86 1015.6
20260906074617 20 62 8.0 14.5 0.00 0.41 0.00 86 1015.8
20260906074117 20 54 8.0 14.5 0.00 0.41 0.00 86 1015.8
20260906073617 20 51 6.4 17.7 0.00 0.41 0.00 86 1015.6
20260906073145 20 47 8.0 14.5 0.00 0.41 0.00 86 1015.6
20260906072610 20 51 9.7 12.9 0.00 0.41 0.00 86 1015.6
20260906072109 20 57 8.0 11.3 0.00 0.41 0.00 86 1015.7
20260906071631 20 51 6.4 14.5 0.00 0.41 0.00 86 1015.6
20260906071115 20 55 8.0 14.5 0.00 0.41 0.00 86 1015.5
20260906070615 20 63 8.0 14.5 0.00 0.41 0.00 87 1015.6
20260906070115 20 29 8.0 14.5 0.00 0.41 0.00 88 1015.6
20260906065622 20 56 6.4 14.5 0.00 0.41 0.00 88 1015.6
20260906065118 20 59 6.4 12.9 0.00 0.41 0.00 88 1015.8
20260906064625 20 66 8.0 12.9 0.00 0.41 0.00 89 1015.7
20260906064126 20 53 8.0 16.1 0.00 0.41 0.00 89 1015.7
20260906063626 20 55 8.0 16.1 0.00 0.41 0.00 89 1015.8
20260906063132 20 72 3.2 11.3 0.00 0.41 0.00 89 1015.8
20260906062612 20 52 6.4 9.7 0.00 0.41 0.00 90 1015.8
20260906062111 20 61 4.8 11.3 0.00 0.41 0.00 90 1015.9
20260906061619 20 20 3.2 9.7 0.00 0.41 0.00 90 1015.8
20260906061117 20 43 3.2 9.7 0.00 0.41 0.00 91 1015.8
20260906060617 20 33 6.4 9.7 0.00 0.41 0.00 91 1015.7
20260906060145 20 52 4.8 8.0 0.00 0.41 0.00 90 1015.7
20260906055624 20 351 3.2 9.7 0.00 0.41 0.00 90 1015.7
20260906055111 20 55 4.8 9.7 0.00 0.41 0.00 90 1015.5
20260906054610 20 320 3.2 8.0 0.00 0.41 0.00 89 1015.6
20260906054109 20 57 4.8 11.3 0.00 0.41 0.00 89 1015.4
20260906053616 20 71 3.2 11.3 0.00 0.41 0.00 89 1015.4
20260906053134 20 58 6.4 14.5 0.00 0.41 0.00 89 1015.3
20260906052620 20 48 6.4 9.7 0.00 0.41 0.00 90 1015.3
20260906052119 20 69 6.4 11.3 0.00 0.41 0.00 90 1015.3
20260906051620 20 64 8.0 11.3 0.00 0.41 0.00 91 1015.3
20260906051127 20 63 4.8 9.7 0.00 0.41 0.00 91 1015.3
20260906050626 20 67 4.8 8.0 0.00 0.41 0.00 91 1015.3
20260906050132 20 75 1.6 11.3 0.00 0.41 0.00 91 1015.3
20260906045633 20 67 6.4 11.3 0.00 0.41 0.00 91 1015.3
20260906045120 20 76 4.8 11.3 0.00 0.41 0.00 91 1015.3
20260906044619 20 62 6.4 11.3 0.00 0.41 0.00 91 1015.3
20260906044119 20 60 6.4 11.3 0.00 0.41 0.00 91 1015.1
20260906043626 21 63 6.4 11.3 0.00 0.41 0.00 91 1015.1
20260906043126 21 62 3.2 11.3 0.00 0.41 0.00 91 1015.1
20260906042626 21 68 4.8 12.9 0.00 0.41 0.00 91 1015.1
20260906042113 21 43 8.0 12.9 0.00 0.41 0.00 91 1015.1
20260906041612 21 71 4.8 14.5 0.00 0.41 0.00 91 1015.0
20260906041112 21 67 8.0 14.5 0.00 0.41 0.00 91 1015.0
20260906040618 21 63 4.8 12.9 0.00 0.41 0.00 90 1015.1
20260906040201 21 57 6.4 12.9 0.00 0.41 0.00 90 1015.1
20260906035619 21 60 8.0 12.9 0.00 0.41 0.41 90 1015.2
20260906035148 21 62 8.0 11.3 0.00 0.41 0.41 90 1015.2
20260906034648 21 55 8.0 11.3 0.00 0.41 0.41 90 1015.2
20260906034135 21 59 8.0 12.9 0.00 0.41 0.41 90 1015.3
20260906033613 21 54 8.0 14.5 0.00 0.41 0.41 90 1015.4
20260906033119 21 63 6.4 16.1 0.00 0.41 0.41 90 1015.3
20260906032618 22 56 9.7 19.3 0.00 0.41 0.41 89 1015.2
20260906032146 22 50 11.3 17.7 0.00 0.41 0.41 89 1015.2
20260906031624 22 62 11.3 19.3 0.00 0.41 0.41 90 1015.2
20260906031131 22 50 9.7 19.3 0.00 0.41 0.41 90 1015.1
20260906030610 22 46 9.7 14.5 0.00 0.41 0.41 92 1015.1
20260906030155 22 68 8.0 14.5 0.00 0.41 0.41 92 1014.9
20260906025613 22 61 6.4 12.9 0.00 0.41 0.41 92 1015.0
20260906025112 22 62 4.8 9.7 0.00 0.41 0.41 92 1014.7
20260906024618 22 69 6.4 14.5 0.00 0.41 0.41 92 1014.6
20260906024118 22 58 8.0 17.7 0.00 0.41 0.41 91 1014.8
20260906023618 22 66 8.0 20.9 0.00 0.41 0.41 91 1014.5
20260906023124 22 47 14.5 20.9 0.00 0.41 0.41 91 1014.6
20260906022623 22 60 12.9 19.3 0.00 0.41 0.41 91 1014.5
20260906022151 23 48 12.9 19.3 0.00 0.41 0.41 91 1014.4
20260906021610 23 56 11.3 19.3 0.00 0.41 0.41 91 1014.5
20260906021130 23 82 9.7 17.7 0.00 0.41 0.41 92 1014.4
20260906020616 23 74 9.7 19.3 0.00 0.41 0.41 92 1014.5
20260906020115 23 75 11.3 19.3 0.00 0.41 0.41 92 1014.4
20260906015622 23 57 12.9 16.1 0.00 0.41 0.41 92 1014.4
20260906015121 23 57 8.0 16.1 0.00 0.41 0.41 92 1014.2
20260906014649 23 68 9.7 16.1 0.00 0.41 0.41 92 1014.0
20260906014128 23 55 9.7 24.1 0.00 0.41 0.41 92 1014.0
20260906013634 23 62 14.5 22.5 0.00 0.41 0.41 91 1014.1
20260906013110 23 50 11.3 22.5 0.00 0.41 0.41 91 1013.7
20260906012610 23 57 11.3 20.9 0.00 0.41 0.41 90 1013.7
20260906012110 23 50 14.5 24.1 0.00 0.41 0.41 90 1013.7
20260906011616 23 57 16.1 24.1 0.00 0.41 0.41 90 1013.6
20260906011137 24 50 14.5 24.1 0.00 0.41 0.41 90 1013.7
20260906010622 24 52 12.9 19.3 0.00 0.41 0.41 90 1013.5
20260906010123 24 53 8.0 19.3 0.00 0.41 0.41 90 1013.6
20260906005623 24 64 12.9 19.3 0.00 0.41 0.41 90 1013.6
20260906005109 24 70 14.5 19.3 0.00 0.41 0.41 90 1013.4
20260906004630 24 57 14.5 19.3 0.00 0.41 0.41 90 1013.4
20260906004115 24 52 11.3 19.3 0.00 0.41 0.41 91 1013.4
20260906003615 24 60 11.3 17.7 0.00 0.41 0.41 91 1013.3
20260906003122 24 67 12.9 19.3 0.00 0.41 0.41 90 1013.2
20260906002642 24 61 11.3 20.9 0.00 0.41 0.41 90 1013.2
20260906002127 24 64 9.7 17.7 0.00 0.41 0.41 90 1013.2
20260906001627 24 53 9.7 17.7 0.00 0.41 0.41 90 1013.0
20260906001126 25 57 8.0 17.7 0.00 0.41 0.41 89 1012.9
20260906000633 25 53 9.7 17.7 0.00 0.41 0.41 88 1012.9
20260906000112 25 54 8.0 14.5 0.00 0.41 0.41 87 1012.8
20260905235611 25 61 6.4 17.7 0.00 0.41 0.41 86 1012.8
20260905235138 25 64 6.4 17.7 0.00 0.41 0.41 85 1012.8
20260905234645 26 55 4.8 14.5 0.00 0.41 0.41 84 1012.9
20260905234124 26 22 6.4 16.1 0.00 0.41 0.41 83 1012.9
20260905233625 27 59 6.4 16.1 0.00 0.41 0.41 82 1012.9
20260905233134 27 51 3.2 8.0 0.00 0.41 0.41 82 1012.9
20260905232640 27 334 1.6 4.8 0.00 0.41 0.41 81 1012.7
20260905232136 28 325 0.0 4.8 0.00 0.41 0.41 81 1012.6
20260905231622 28 353 1.6 11.3 0.00 0.41 0.41 80 1012.4
20260905231121 28 321 4.8 11.3 0.00 0.41 0.41 80 1012.3
20260905230620 28 338 0.0 4.8 0.00 0.41 0.41 79 1012.1
20260905230128 28 337 0.0 6.4 0.00 0.41 0.41 79 1012.2
20260905225611 28 68 0.0 6.4 0.00 0.41 0.41 80 1012.1
20260905225110 29 45 1.6 8.0 0.00 0.41 0.41 79 1012.2
20260905224616 29 12 3.2 8.0 0.00 0.41 0.41 78 1012.2
20260905224116 30 346 3.2 6.4 0.00 0.41 0.41 77 1012.2
20260905223615 30 28 3.2 6.4 0.00 0.41 0.41 77 1012.2
20260905223122 30 48 1.6 8.0 0.00 0.41 0.41 77 1012.2
20260905222622 30 340 1.6 8.0 0.00 0.41 0.41 77 1012.2
20260905222130 30 58 1.6 12.9 0.00 0.41 0.41 77 1012.2
20260905221627 30 55 4.8 12.9 0.00 0.41 0.41 76 1012.3
20260905221127 30 322 4.8 11.3 0.00 0.41 0.41 79 1012.3
20260905220634 30 57 6.4 11.3 0.00 0.41 0.41 77 1012.1
20260905220130 30 60 4.8 8.0 0.00 0.41 0.41 78 1012.1
20260905215616 30 331 3.2 11.3 0.00 0.41 0.41 77 1012.1
20260905215116 29 30 4.8 14.5 0.00 0.41 0.41 77 1011.8
20260905214623 30 48 9.7 14.5 0.00 0.41 0.41 76 1011.8
20260905214144 30 30 4.8 9.7 0.00 0.41 0.41 78 1011.9
20260905213631 30 56 4.8 9.7 0.00 0.41 0.41 79 1011.8
20260905213111 30 52 1.6 9.7 0.00 0.41 0.41 78 1011.9
20260905212610 30 339 3.2 9.7 0.00 0.41 0.41 76 1011.9
20260905212139 30 346 4.8 16.1 0.00 0.41 0.41 76 1011.8
20260905211618 30 360 8.0 16.1 0.00 0.41 0.41 76 1011.8
20260905211117 30 55 3.2 12.9 0.00 0.41 0.41 78 1011.7
20260905210624 30 345 3.2 12.9 0.00 0.41 0.41 78 1011.7
20260905210123 30 24 4.8 14.5 0.00 0.41 0.41 76 1011.8
20260905205630 30 339 6.4 14.5 0.00 0.41 0.41 76 1011.7
20260905205109 30 44 6.4 14.5 0.00 0.41 0.41 77 1011.9
20260905204638 30 59 4.8 16.1 0.00 0.41 0.41 78 1011.9
20260905204117 29 352 3.2 11.3 0.00 0.41 0.41 78 1011.9
20260905203616 30 29 4.8 16.1 0.00 0.41 0.41 78 1012.0
20260905203123 30 75 4.8 16.1 0.00 0.41 0.41 77 1012.0
20260905202623 30 36 4.8 11.3 0.00 0.41 0.41 77 1011.9
20260905202123 30 19 4.8 11.3 0.00 0.41 0.41 81 1011.9
20260905201629 29 33 3.2 8.0 0.00 0.41 0.41 78 1012.0
20260905201130 30 5 3.2 9.7 0.00 0.41 0.41 76 1012.3
20260905200637 30 331 4.8 11.3 0.00 0.41 0.41 74 1012.3
20260905200115 31 308 4.8 11.3 0.00 0.41 0.41 74 1012.1
20260905195643 31 358 4.8 8.0 0.00 0.41 0.41 74 1012.2
20260905195121 31 304 4.8 8.0 0.00 0.41 0.41 74 1012.2
20260905194628 30 325 4.8 9.7 0.00 0.41 0.41 75 1012.3
20260905194127 30 308 4.8 9.7 0.00 0.41 0.41 76 1012.5
20260905193634 31 288 3.2 11.3 0.00 0.41 0.41 75 1012.5
20260905193113 31 299 4.8 11.3 0.00 0.41 0.41 74 1012.5
20260905192613 31 321 4.8 8.0 0.00 0.41 0.41 74 1012.4
20260905192141 31 44 4.8 12.9 0.00 0.41 0.41 73 1012.4
20260905191620 31 316 8.0 12.9 0.00 0.41 0.41 74 1012.5
20260905191120 31 295 6.4 12.9 0.00 0.41 0.41 75 1012.8
20260905190626 31 275 6.4 12.9 0.00 0.41 0.41 73 1012.9
20260905190126 31 267 3.2 12.9 0.00 0.41 0.41 77 1012.9
20260905185634 30 277 6.4 16.1 0.00 0.41 0.41 78 1013.0
20260905185113 30 275 11.3 16.1 0.00 0.41 0.41 76 1013.0
20260905184612 30 225 3.2 14.5 0.00 0.41 0.41 76 1012.9
20260905184119 30 242 8.0 17.7 0.00 0.41 0.41 77 1013.1
20260905183619 30 259 9.7 17.7 0.00 0.41 0.41 74 1013.0
20260905183126 30 277 9.7 14.5 0.00 0.41 0.41 76 1013.1
20260905182646 30 264 8.0 14.5 0.00 0.41 0.41 77 1013.2
20260905182133 30 277 8.0 14.5 0.00 0.41 0.41 76 1013.2
20260905181633 30 234 4.8 12.9 0.00 0.41 0.41 75 1013.2
20260905181119 30 249 6.4 12.9 0.00 0.41 0.41 75 1013.2
20260905180618 30 232 3.2 11.3 0.00 0.41 0.41 75 1013.2
20260905180118 29 228 6.4 11.3 0.00 0.41 0.41 75 1013.3
20260905175645 29 216 1.6 12.9 0.00 0.41 0.41 74 1013.4
20260905175131 29 285 8.0 12.9 0.00 0.41 0.41 75 1013.4
20260905174611 28 257 3.2 12.9 0.00 0.41 0.41 78 1013.4
20260905174110 28 278 9.7 12.9 0.00 0.41 0.41 75 1013.5
20260905173609 28 273 6.4 12.9 0.00 0.41 0.41 74 1013.5
20260905173116 29 273 8.0 12.9 0.00 0.41 0.41 75 1013.5
20260905172643 29 250 4.8 11.3 0.00 0.41 0.41 76 1013.5
20260905172121 28 240 6.4 12.9 0.00 0.41 0.41 78 1013.6
20260905171622 28 205 6.4 14.5 0.00 0.41 0.41 78 1013.7
20260905170616 28 164 8.0 16.1 0.00 0.41 0.41 75 1013.8
20260905170137 28 243 6.4 14.5 0.00 0.41 0.41 79 1013.8
20260905165622 28 251 4.8 11.3 0.00 0.41 0.41 78 1013.9
20260905165122 28 149 4.8 12.9 0.00 0.41 0.41 78 1014.0
20260905164630 28 211 4.8 12.9 0.00 0.41 0.41 80 1013.9
20260905164128 28 200 6.4 11.3 0.00 0.41 0.41 79 1014.1
20260905163609 27 213 6.4 12.9 0.00 0.41 0.41 80 1014.1
20260905163137 27 218 6.4 12.9 0.00 0.41 0.41 79 1014.2
20260905162643 27 185 4.8 11.3 0.00 0.41 0.41 82 1014.2
20260905162122 27 212 6.4 12.9 0.00 0.41 0.41 80 1014.2
20260905161621 27 166 6.4 12.9 0.00 0.41 0.41 80 1014.3
20260905161128 27 165 6.4 11.3 0.00 0.41 0.41 81 1014.3
20260905160627 27 242 6.4 11.3 0.00 0.41 0.41 81 1014.3
20260905160127 27 216 4.8 16.1 0.00 0.41 0.41 83 1014.3
20260905155634 26 206 4.8 16.1 0.00 0.41 0.41 83 1014.3
20260905155113 26 199 4.8 11.3 0.20 0.41 0.41 84 1014.3
20260905154621 26 199 6.4 8.0 0.41 0.41 0.41 81 1014.3
20260905154120 26 229 3.2 8.0 0.41 0.41 0.41 84 1014.2
20260905153628 25 209 3.2 11.3 0.41 0.41 0.41 86 1014.2
20260905153128 25 206 4.8 11.3 0.41 0.41 0.41 85 1014.0
20260905152635 24 187 3.2 9.7 0.41 0.41 0.41 89 1014.1
20260905152134 23 188 4.8 9.7 0.41 0.41 0.41 90 1014.2
20260905151613 23 156 4.8 6.4 0.41 0.41 0.41 93 1014.0
20260905151143 23 125 0.0 1.6 0.41 0.41 0.41 91 1014.4
20260905150621 23 164 0.0 8.0 0.41 0.41 0.41 90 1014.5
20260905150128 23 169 3.2 8.0 0.41 0.41 0.41 89 1014.5
20260905145627 23 143 4.8 8.0 0.41 0.41 0.41 88 1014.4
20260905145134 24 65 3.2 4.8 0.15 0.15 0.15 85 1014.9
20260905144613 24 202 1.6 8.0 0.00 0.00 0.00 87 1014.4
20260905144114 23 148 4.8 11.3 0.00 0.00 0.00 86 1014.3
20260905143613 23 190 4.8 16.1 0.00 0.00 0.00 85 1014.2
20260905143120 23 217 8.0 20.9 0.00 0.00 0.00 85 1014.2
20260905142641 24 193 12.9 20.9 0.00 0.00 0.00 83 1014.0
20260905142125 24 218 8.0 17.7 0.00 0.00 0.00 85 1014.0
20260905141625 24 173 11.3 17.7 0.00 0.00 0.00 85 1013.9
20260905141132 24 171 9.7 19.3 0.00 0.00 0.00 84 1013.9
20260905140611 24 153 9.7 19.3 0.00 0.00 0.00 85 1014.0
20260905140111 23 151 9.7 16.1 0.00 0.00 0.00 87 1013.8
20260905135617 23 154 11.3 14.5 0.00 0.00 0.00 86 1013.9
20260905135116 23 166 6.4 17.7 0.00 0.00 0.00 87 1013.8
20260905134620 23 152 9.7 17.7 0.00 0.00 0.00 87 1013.9
20260905134140 23 164 8.0 19.3 0.00 0.00 0.00 89 1013.7
20260905133626 22 195 12.9 19.3 0.00 0.00 0.00 88 1013.7
20260905133125 22 166 11.3 25.7 0.00 0.00 0.00 89 1013.6
20260905132649 22 192 16.1 25.7 0.00 0.00 0.00 87 1013.6
20260905132148 22 148 9.7 20.9 0.00 0.00 0.00 88 1013.6
20260905131633 22 179 12.9 24.1 0.00 0.00 0.00 89 1013.8
20260905131112 22 183 12.9 24.1 0.00 0.00 0.00 89 1013.5
20260905130639 22 199 14.5 20.9 0.00 0.00 0.00 89 1013.7
20260905130118 22 166 9.7 19.3 0.00 0.00 0.00 90 1013.8
20260905125617 22 153 9.7 19.3 0.00 0.00 0.00 91 1013.6
20260905125124 21 178 11.3 17.7 0.00 0.00 0.00 91 1013.8
20260905124623 21 156 9.7 17.7 0.00 0.00 0.00 91 1013.7
20260905124130 21 158 11.3 17.7 0.00 0.00 0.00 91 1013.8
20260905123609 21 197 9.7 14.5 0.00 0.00 0.00 92 1013.8
20260905123109 21 148 8.0 14.5 0.00 0.00 0.00 93 1013.8
20260905122635 21 157 8.0 11.3 0.00 0.00 0.00 93 1014.1
20260905122115 21 141 6.4 14.5 0.00 0.00 0.00 93 1013.9
20260905121614 21 168 6.4 14.5 0.00 0.00 0.00 94 1013.9
20260905121142 21 194 3.2 11.3 0.00 0.00 0.00 94 1013.9
20260905120128 20 127 4.8 9.7 0.00 0.00 0.00 94 1014.1
20260905115628 20 133 3.2 9.7 0.00 0.00 0.00 94 1014.0
20260905115128 20 126 4.8 9.7 0.00 0.00 0.00 94 1014.0
20260905114635 20 143 4.8 11.3 0.00 0.00 0.00 94 1014.0
20260905114115 20 138 4.8 16.1 0.00 0.00 0.00 94 1014.0
20260905113615 20 116 6.4 16.1 0.00 0.00 0.00 94 1013.9
20260905113121 20 127 6.4 12.9 0.00 0.00 0.00 94 1013.9
20260905112621 20 100 8.0 16.1 0.00 0.00 0.00 93 1013.8
20260905112120 20 113 8.0 16.1 0.00 0.00 0.00 93 1013.8
20260905111627 20 130 8.0 16.1 0.00 0.00 0.00 93 1013.7
20260905111126 20 111 8.0 17.7 0.00 0.00 0.00 93 1013.7
20260905110654 20 129 9.7 17.7 0.00 0.00 0.00 93 1013.7
20260905110113 20 91 8.0 16.1 0.00 0.00 0.00 92 1013.7
20260905105613 21 86 8.0 16.1 0.00 0.00 0.00 92 1013.7
20260905105119 21 111 8.0 12.9 0.00 0.00 0.00 92 1013.6
20260905104619 21 132 6.4 19.3 0.00 0.00 0.00 92 1013.7
20260905104119 21 127 12.9 19.3 0.00 0.00 0.00 92 1013.7
20260905103625 21 101 12.9 17.7 0.00 0.00 0.00 92 1013.7
20260905103125 21 125 11.3 19.3 0.00 0.00 0.00 91 1013.6
20260905102624 21 121 11.3 24.1 0.00 0.00 0.00 91 1013.7
20260905102132 21 109 11.3 24.1 0.00 0.00 0.00 91 1013.7
20260905101632 21 84 8.0 17.7 0.00 0.00 0.00 91 1013.8
20260905101139 21 123 9.7 19.3 0.00 0.00 0.00 90 1013.8
20260905100617 21 113 9.7 19.3 0.00 0.00 0.00 90 1013.9
20260905100142 21 90 9.7 22.5 0.00 0.00 0.00 90 1013.8
20260905095620 21 104 14.5 22.5 0.00 0.00 0.00 90 1014.0
20260905095111 21 94 14.5 25.7 0.00 0.00 0.00 89 1013.9
20260905094611 22 83 17.7 27.4 0.00 0.00 0.00 88 1013.9
20260905094110 23 88 19.3 27.4 0.00 0.00 0.00 89 1013.7
20260905093616 24 69 9.7 17.7 0.00 0.00 0.00 94 1013.8
20260905093133 23 48 6.4 16.1 0.00 0.00 0.00 94 1013.7
20260905092619 23 78 8.0 20.9 0.00 0.00 0.00 95 1013.3
20260905092118 23 67 14.5 20.9 0.00 0.00 0.00 97 1013.6
20260905091618 23 52 3.2 8.0 0.00 0.00 0.00 95 1013.2
20260905091110 23 130 0.0 0.0 0.00 0.00 0.00 95 1013.0
20260905090630 23 157 0.0 0.0 0.00 0.00 0.00 95 1012.9
20260905090116 23 159 0.0 1.6 0.00 0.00 0.00 95 1012.9
20260905085613 23 159 0.0 4.8 0.00 0.00 0.00 95 1012.9
20260905085118 23 161 3.2 4.8 0.00 0.00 0.00 96 1012.9
20260905084616 23 164 1.6 4.8 0.00 0.00 0.00 95 1012.9
20260905084116 23 181 0.0 3.2 0.00 0.00 0.00 95 1012.9
20260905083625 23 143 0.0 0.0 0.00 0.00 0.00 94 1012.9
20260905083113 23 132 0.0 0.0 0.00 0.00 0.00 94 1013.0
20260905082616 23 132 0.0 0.0 0.00 0.00 0.00 94 1012.9
20260905081615 23 132 0.0 0.0 0.00 0.00 0.00 93 1012.9
20260905081117 23 132 0.0 0.0 0.00 0.00 0.00 92 1012.9